STARLINK-1661, 46355

Orbit data source: Space-Track

STARLINK-1661, 46355 is a payload satellite owned by SpaceX/Seattle (US) in LEO that was launched on Thu, 03 Sep 2020 UTC via an FALCON 9 launch vehicle from the Air Force Eastern Test Range (AFETR). Payload-class satellites include a variety of spacecraft equipped with specific instruments for various scientific and technological missions. These include communications satellites like Starlink; space stations such as the ISS; scientific satellites like the Hubble; Earth observation satellites from companies like Planet Labs, Umbra, and HawkEye 360; GPS; miniature CubeSats for education and research; and military/defense satellites.

Loading next visibility...
Identifier
46355, 2020-062AG
Orbit
LEO
Country
Flag of USUS
Related business
Manufacturer
SpaceX/Seattle
Mission
Partially operational Commercial Communications
Bus & Motor
STARLINK, Unknown motor
Mass
260 kg wet, ~248 kg dry
Launch date (UTC)
2020-09-03 (6 years ago)
Launch vehicle
FALCON 9
Launch site
Air Force Eastern Test Range (AFETR)
Object type
Payload
Rocket body
Debris
Shape & HBR
Box + 1 Pan, 10.1 m
Radar Cross Section
13.562 m², Large (>1 m²)

Expand to show TLE details & history
Last TLE update: 19 hours ago

TLE from 19 hours ago
0 STARLINK-1661
1 46355U 20062AG  26170.53173660  .00044476  00000-0  11180-2 0  9998
2 46355  53.1537 254.8173 0002646 279.6925  80.3781 15.39546658320034
Epoch: 2026-06-19T12:45Z
TLE epoch observation values (Epoch: 2026-06-19T12:45:42.042Z)
Latitude
0.00001°
Longitude
155.63276°
Altitude
448.05 km
Speed
7.645 km/s
True Right ascension
16h 59m 16s
True Declination
0° 00' 00"
Sunlit
Object was in full shadow at epoch
Visualization orbit readout
Latitude
Unknown
Longitude
Unknown
Altitude
Unknown
Speed
Unknown
Apparent Right ascension
Unknown
Apparent Declination
Unknown
Sunlit
N/A
Visualization observer readout
Local Sidereal Time
18:34:43
Azimuth
Unknown
Elevation
Unknown
Doppler factor
Unknown
Orbital elements
Apogee altitude
449.513 km
Perigee altitude
445.901 km
Semi-major axis
6,825.844 km
Eccentricity
0.00026
Inclination
53.1537°
RAAN
254.8173°
Arg. of periapsis
279.6925°
True anomaly
80.408°
Mean anomaly
80.3781°
Eccentric anomaly
80.39305°
Mean motion
3.84865 °/min
Orbital period
93.54 mins
BSTAR
0.001118
Loading maneuver chart data...
Computing Atmospheric mass density...

Documentation

Showing up to 5 results
|